Location: G�kdere
(37.0328°N, 30.9000°E)
Time: 21:34:45
(UTC+00:00)

Okean 1-7 - Pass Details

Date: 03 March 2021
Orbit: 589 x 619 km, 82.5° (Epoch: 19 April)

Event Time Altitude Azimuth Distance (km) Brightness Sun altitude
Rises 18:00:34 0° 344° (NNW) 2,886 6.9 -26.2°
Reaches altitude 10° 18:02:53 10° 338° (NNW) 1,973 6.0 -26.7°
Maximum altitude 18:06:58 41° 268° (W) 889 4.2 -27.5°
Enters shadow 18:08:44 27° 218° (SW) 1,164 4.6 -27.8°
